Weather History for KSLB - October, 2014

Change the Weather History Date:

Saturday, October 25, 2014

  Actual Average Record
Temperature  
Mean Temperature 57 °F -  
Max Temperature 68 °F 55 °F 73 °F (1998)
Min Temperature 46 °F 37 °F 26 °F (2013)
Degree Days  
Heating Degree Days 8    
Growing Degree Days 7 (Base 50)    
Moisture  
Dew Point 37 °F    
Average Humidity 50    
Maximum Humidity 82    
Minimum Humidity 26    
Precipitation  
Precipitation 0.00 in - - ()
Sea Level Pressure  
Sea Level Pressure 30.09 in    
Wind  
Wind Speed 8 mph (NNE)    
Max Wind Speed 12 mph    
Max Gust Speed -    
Visibility 10 miles    
Events      
Averages and records for this station are not official NWS values.
T = Trace of Precipitation, MM = Missing Value Source: NWS Daily Summary

Daily Weather History Graph

Daily Weather History Graph

Search for Another Location

Airport or City:

Trip Planner

Search our weather history database for the weather conditions in past years. The results will help you decide how hot, cold, wet, or windy it might be!

Date:

Astronomy

Oct. 25, 2014 Rise Set
Actual Time 7:46 AM CDT 6:23 PM CDT
Civil Twilight 7:17 AM CDT 6:52 PM CDT
Nautical Twilight 6:44 AM CDT 7:25 PM CDT
Astronomical Twilight 6:11 AM CDT 7:57 PM CDT
Moon 9:27 AM CDT (10/25) 7:45 PM CDT (10/25)
Length of Visible Light 11h 35m
Length of Day
10h 37m
Waxing Crescent, 3% of the Moon is Illuminated
Oct 25
Waxing Crescent
Oct 30
First Quarter
Nov 6
Full
Nov 14
Last Quarter
Nov 22
New

Hourly Weather History & Observations

Time (CDT) Temp. Windchill Dew Point Humidity Pressure Visibility Wind Dir Wind Speed Gust Speed Precip Events Conditions
12:15 AM 55.4 °F - 46.4 °F 72% 30.02 in 10.0 mi West 11.5 mph - N/A   Clear
12:35 AM 53.6 °F - 46.4 °F 77% 30.02 in 10.0 mi West 11.5 mph - N/A   Clear
12:55 AM 53.6 °F - 46.4 °F 77% 30.01 in 10.0 mi West 9.2 mph - N/A   Clear
1:15 AM 51.8 °F - 46.4 °F 82% 30.02 in 10.0 mi WNW 8.1 mph - N/A   Clear
1:35 AM 53.6 °F - 44.6 °F 72% 30.02 in 10.0 mi WNW 9.2 mph - N/A   Clear
1:55 AM 53.6 °F - 42.8 °F 67% 30.02 in 10.0 mi NW 8.1 mph - N/A   Clear
2:15 AM 55.4 °F - 42.8 °F 63% 30.02 in 10.0 mi WNW 9.2 mph - N/A   Clear
2:35 AM 55.4 °F - 42.8 °F 63% 30.03 in 10.0 mi NW 10.4 mph - N/A   Clear
2:55 AM 55.4 °F - 41.0 °F 58% 30.04 in 10.0 mi NNW 9.2 mph - N/A   Clear
3:15 AM 53.6 °F - 41.0 °F 62% 30.04 in 10.0 mi NNW 9.2 mph - N/A   Clear
3:35 AM 51.8 °F - 42.8 °F 71% 30.05 in 10.0 mi North 9.2 mph - N/A   Clear
3:55 AM 53.6 °F - 41.0 °F 62% 30.04 in 10.0 mi North 9.2 mph - N/A   Clear
4:15 AM 53.6 °F - 41.0 °F 62% 30.05 in 10.0 mi North 9.2 mph - N/A   Clear
4:35 AM 55.4 °F - 41.0 °F 58% 30.05 in 10.0 mi NNE 10.4 mph - N/A   Clear
4:55 AM 53.6 °F - 39.2 °F 58% 30.05 in 10.0 mi NNE 9.2 mph - N/A   Clear
5:15 AM 53.6 °F - 39.2 °F 58% 30.06 in 10.0 mi North 9.2 mph - N/A   Clear
5:35 AM 53.6 °F - 39.2 °F 58% 30.06 in 10.0 mi North 8.1 mph - N/A   Clear
5:55 AM 51.8 °F - 39.2 °F 62% 30.07 in 10.0 mi North 9.2 mph - N/A   Clear
6:15 AM 50.0 °F - 39.2 °F 66% 30.07 in 10.0 mi North 10.4 mph - N/A   Clear
6:35 AM 51.8 °F - 37.4 °F 58% 30.07 in 10.0 mi North 9.2 mph - N/A   Clear
6:55 AM 53.6 °F - 37.4 °F 54% 30.08 in 10.0 mi NNE 9.2 mph - N/A   Clear
7:15 AM 51.8 °F - 37.4 °F 58% 30.09 in 10.0 mi NNE 9.2 mph - N/A   Clear
7:35 AM 51.8 °F - 37.4 °F 58% 30.10 in 10.0 mi North 9.2 mph - N/A   Clear
7:55 AM 51.8 °F - 37.4 °F 58% 30.10 in 10.0 mi North 9.2 mph - N/A   Clear
8:15 AM 51.8 °F - 37.4 °F 58% 30.11 in 10.0 mi North 9.2 mph - N/A   Clear
8:35 AM 53.6 °F - 37.4 °F 54% 30.12 in 10.0 mi North 8.1 mph - N/A   Clear
8:55 AM 53.6 °F - 39.2 °F 58% 30.12 in 10.0 mi North 6.9 mph - N/A   Clear
9:15 AM 55.4 °F - 41.0 °F 58% 30.13 in 10.0 mi North 4.6 mph - N/A   Clear
9:35 AM 57.2 °F - 39.2 °F 51% 30.13 in 10.0 mi NNE 6.9 mph - N/A   Clear
9:55 AM 57.2 °F - 37.4 °F 48% 30.13 in 10.0 mi NNE 9.2 mph - N/A   Clear
10:15 AM 59.0 °F - 37.4 °F 45% 30.14 in 10.0 mi NNE 9.2 mph - N/A   Clear
10:35 AM 59.0 °F - 37.4 °F 45% 30.15 in 10.0 mi NE 8.1 mph - N/A   Clear
10:55 AM 60.8 °F - 35.6 °F 39% 30.14 in 10.0 mi NE 9.2 mph - N/A   Clear
11:15 AM 62.6 °F - 35.6 °F 37% 30.15 in 10.0 mi NE 9.2 mph - N/A   Clear
11:35 AM 62.6 °F - 35.6 °F 37% 30.15 in 10.0 mi NNE 9.2 mph - N/A   Clear
11:55 AM 62.6 °F - 35.6 °F 37% 30.15 in 10.0 mi Variable 5.8 mph - N/A   Clear
12:15 PM 64.4 °F - 33.8 °F 32% 30.14 in 10.0 mi NNE 9.2 mph - N/A   Clear
12:35 PM 64.4 °F - 35.6 °F 34% 30.14 in 10.0 mi NNE 6.9 mph - N/A   Clear
12:55 PM 64.4 °F - 33.8 °F 32% 30.13 in 10.0 mi NNE 8.1 mph - N/A   Clear
1:15 PM 64.4 °F - 33.8 °F 32% 30.13 in 10.0 mi Variable 6.9 mph - N/A   Clear
1:35 PM 66.2 °F - 33.8 °F 30% 30.13 in 10.0 mi NE 9.2 mph - N/A   Clear
1:55 PM 66.2 °F - 35.6 °F 32% 30.13 in 10.0 mi Variable 6.9 mph - N/A   Clear
2:15 PM 68.0 °F - 32.0 °F 26% 30.12 in 10.0 mi North 8.1 mph - N/A   Clear
2:35 PM 68.0 °F - 33.8 °F 28% 30.11 in 10.0 mi NNE 8.1 mph - N/A   Clear
2:55 PM 68.0 °F - 32.0 °F 26% 30.11 in 10.0 mi NNE 9.2 mph - N/A   Clear
3:15 PM 68.0 °F - 33.8 °F 28% 30.11 in 10.0 mi Variable 4.6 mph - N/A   Clear
3:35 PM 68.0 °F - 33.8 °F 28% 30.11 in 10.0 mi Variable 4.6 mph - N/A   Clear
3:55 PM 68.0 °F - 32.0 °F 26% 30.11 in 10.0 mi Variable 4.6 mph - N/A   Clear
4:15 PM 68.0 °F - 33.8 °F 28% 30.10 in 10.0 mi Variable 5.8 mph - N/A   Clear
4:35 PM 66.2 °F - 33.8 °F 30% 30.10 in 10.0 mi NE 4.6 mph - N/A   Clear
4:55 PM 66.2 °F - 33.8 °F 30% 30.09 in 10.0 mi NNE 5.8 mph - N/A   Clear
5:15 PM 66.2 °F - 35.6 °F 32% 30.09 in 10.0 mi NNE 4.6 mph - N/A   Clear
5:35 PM 64.4 °F - 35.6 °F 34% 30.09 in 10.0 mi NNE 4.6 mph - N/A   Clear
5:55 PM 62.6 °F - 35.6 °F 37% 30.08 in 10.0 mi NNE 4.6 mph - N/A   Clear
6:15 PM 60.8 °F - 35.6 °F 39% 30.09 in 10.0 mi NNE 3.5 mph - N/A   Clear
6:35 PM 57.2 °F - 35.6 °F 44% 30.08 in 10.0 mi Calm Calm - N/A   Clear
6:55 PM 59.0 °F - 35.6 °F 42% 30.08 in 10.0 mi NE 4.6 mph - N/A   Clear
7:15 PM 57.2 °F - 37.4 °F 48% 30.08 in 10.0 mi ENE 3.5 mph - N/A   Clear
7:35 PM 55.4 °F - 37.4 °F 51% 30.08 in 10.0 mi ENE 3.5 mph - N/A   Clear
7:55 PM 55.4 °F - 35.6 °F 47% 30.09 in 10.0 mi ENE 5.8 mph - N/A   Clear
8:15 PM 53.6 °F - 33.8 °F 47% 30.08 in 10.0 mi ENE 5.8 mph - N/A   Clear
8:35 PM 53.6 °F - 35.6 °F 51% 30.08 in 10.0 mi ENE 3.5 mph - N/A   Clear
8:55 PM 51.8 °F - 35.6 °F 54% 30.08 in 10.0 mi ENE 3.5 mph - N/A   Clear
9:15 PM 51.8 °F - 33.8 °F 50% 30.09 in 10.0 mi NE 4.6 mph - N/A   Clear
9:35 PM 51.8 °F - 33.8 °F 50% 30.09 in 10.0 mi NE 5.8 mph - N/A   Clear
9:55 PM 51.8 °F - 33.8 °F 50% 30.09 in 10.0 mi NE 5.8 mph - N/A   Clear
10:15 PM 50.0 °F - 35.6 °F 58% 30.09 in 10.0 mi ENE 5.8 mph - N/A   Clear
10:35 PM 50.0 °F - 33.8 °F 54% 30.09 in 10.0 mi ENE 6.9 mph - N/A   Clear
10:55 PM 46.4 °F 42.9 °F 33.8 °F 62% 30.08 in 10.0 mi East 6.9 mph - N/A   Clear
11:15 PM 48.2 °F - 33.8 °F 58% 30.07 in 10.0 mi East 6.9 mph - N/A   Clear
11:35 PM 48.2 °F - 33.8 °F 58% 30.07 in 10.0 mi East 8.1 mph - N/A   Clear
11:55 PM 48.2 °F - 33.8 °F 58% 30.07 in 10.0 mi East 8.1 mph - N/A   Clear